TimeEDT,TemperatureF,Dew PointF,Humidity,Sea Level PressureIn,VisibilityMPH,Wind Direction,Wind SpeedMPH,Gust SpeedMPH,PrecipitationIn,Events,Conditions,WindDirDegrees,DateUTC
12:15 AM,73.4,-9999,N/A,30.01,7.0,Calm,Calm,-,N/A,,Clear,0,2013-08-02 04:15:00
12:35 AM,73.4,-9999,N/A,30.02,10.0,Calm,Calm,-,N/A,,Clear,0,2013-08-02 04:35:00
12:55 AM,73.4,-9999,N/A,30.01,9.0,Calm,Calm,-,N/A,,Clear,0,2013-08-02 04:55:00
1:15 AM,73.4,-9999,N/A,30.01,10.0,Calm,Calm,-,N/A,,Clear,0,2013-08-02 05:15:00
1:35 AM,73.4,73.4,100,30.01,10.0,Calm,Calm,-,N/A,,Clear,0,2013-08-02 05:35:00
1:55 AM,73.4,-9999,N/A,30.00,7.0,Calm,Calm,-,N/A,,Clear,0,2013-08-02 05:55:00
2:15 AM,73.4,-9999,N/A,30.00,9.0,Calm,Calm,-,N/A,,Clear,0,2013-08-02 06:15:00
2:55 AM,73.4,-9999,N/A,29.99,6.0,Calm,Calm,-,N/A,,Haze,0,2013-08-02 06:55:00
3:15 AM,73.4,-9999,N/A,29.99,10.0,Calm,Calm,-,N/A,,Clear,0,2013-08-02 07:15:00
3:35 AM,71.6,-9999,N/A,29.99,9.0,Calm,Calm,-,N/A,,Clear,0,2013-08-02 07:35:00
3:55 AM,73.4,-9999,N/A,29.99,9.0,NE,4.6,-,N/A,,Clear,50,2013-08-02 07:55:00
4:15 AM,73.4,-9999,N/A,29.98,8.0,Calm,Calm,-,N/A,,Clear,0,2013-08-02 08:15:00
4:35 AM,73.4,-9999,N/A,29.98,8.0,Calm,Calm,-,N/A,,Clear,0,2013-08-02 08:35:00
4:55 AM,73.4,-9999,N/A,29.97,9.0,Calm,Calm,-,N/A,,Clear,0,2013-08-02 08:55:00
5:15 AM,73.4,-9999,N/A,29.97,8.0,Calm,Calm,-,N/A,,Clear,0,2013-08-02 09:15:00
5:35 AM,73.4,-9999,N/A,29.98,8.0,Calm,Calm,-,N/A,,Clear,0,2013-08-02 09:35:00
5:55 AM,73.4,-9999,N/A,29.98,9.0,Calm,Calm,-,N/A,,Clear,0,2013-08-02 09:55:00
6:15 AM,71.6,-9999,N/A,29.99,8.0,Calm,Calm,-,N/A,,Clear,0,2013-08-02 10:15:00
6:35 AM,71.6,-9999,N/A,29.98,8.0,Calm,Calm,-,N/A,,Clear,0,2013-08-02 10:35:00
6:55 AM,71.6,-9999,N/A,29.99,7.0,Calm,Calm,-,N/A,,Clear,0,2013-08-02 10:55:00
7:48 AM,73.4,-9999,N/A,30.00,7.0,Calm,Calm,-,N/A,,Scattered Clouds,0,2013-08-02 11:48:00
8:50 AM,78.8,77.0,94,30.01,7.0,Calm,Calm,-,N/A,,Partly Cloudy,0,2013-08-02 12:50:00
9:47 AM,80.6,73.4,79,30.03,7.0,Calm,Calm,-,N/A,,Partly Cloudy,0,2013-08-02 13:47:00
10:47 AM,82.4,71.6,70,30.05,7.0,Calm,Calm,-,N/A,,Scattered Clouds,0,2013-08-02 14:47:00
11:50 AM,84.2,69.8,62,30.05,7.0,Variable,3.5,-,N/A,,Scattered Clouds,0,2013-08-02 15:50:00
12:50 PM,86.0,69.8,58,30.05,7.0,Variable,5.8,-,N/A,,Scattered Clouds,0,2013-08-02 16:50:00
1:47 PM,87.8,71.6,58,30.03,7.0,Variable,4.6,-,N/A,,Scattered Clouds,0,2013-08-02 17:47:00
2:47 PM,89.6,71.6,55,30.02,7.0,ENE,5.8,-,N/A,,Mostly Cloudy,60,2013-08-02 18:47:00
3:35 PM,89.6,69.8,52,30.00,9.0,ENE,4.6,-,N/A,,Scattered Clouds,70,2013-08-02 19:35:00
3:55 PM,87.8,71.6,58,29.99,9.0,NE,5.8,-,N/A,,Partly Cloudy,40,2013-08-02 19:55:00
4:15 PM,89.6,69.8,52,29.99,7.0,NNE,5.8,-,N/A,,Clear,30,2013-08-02 20:15:00
4:35 PM,89.6,69.8,52,29.98,8.0,NE,4.6,-,N/A,Thunderstorm,Partly Cloudy,50,2013-08-02 20:35:00
4:55 PM,91.4,68.0,46,29.98,7.0,NNE,4.6,-,N/A,Thunderstorm,Clear,20,2013-08-02 20:55:00
5:15 PM,89.6,69.8,52,29.98,6.0,Calm,Calm,-,N/A,Thunderstorm,Haze,0,2013-08-02 21:15:00
5:35 PM,84.2,71.6,66,29.99,8.0,SW,16.1,20.7,N/A,Thunderstorm,Mostly Cloudy,230,2013-08-02 21:35:00
5:55 PM,80.6,69.8,70,29.99,9.0,West,11.5,-,N/A,Thunderstorm,Overcast,270,2013-08-02 21:55:00
6:15 PM,77.0,75.2,94,29.99,-9999.0,West,20.7,25.3,0.20,Rain-Thunderstorm,Heavy Thunderstorms and Rain,280,2013-08-02 22:15:00
6:35 PM,75.2,75.2,100,29.98,6.0,WSW,11.5,-,0.25,Thunderstorm,Scattered Clouds,240,2013-08-02 22:35:00
6:55 PM,77.0,73.4,89,30.00,9.0,WSW,3.5,-,0.25,Thunderstorm,Thunderstorm,250,2013-08-02 22:55:00
7:15 PM,77.0,73.4,89,30.02,7.0,Calm,Calm,-,N/A,Thunderstorm,Mostly Cloudy,0,2013-08-02 23:15:00
7:35 PM,75.2,73.4,94,30.02,8.0,SE,6.9,-,N/A,Thunderstorm,Mostly Cloudy,130,2013-08-02 23:35:00
7:55 PM,75.2,75.2,100,30.03,8.0,Calm,Calm,-,N/A,Thunderstorm,Partly Cloudy,0,2013-08-02 23:55:00
8:15 PM,75.2,75.2,100,30.03,9.0,SSE,4.6,-,N/A,Thunderstorm,Partly Cloudy,160,2013-08-03 00:15:00
8:35 PM,75.2,75.2,100,30.06,9.0,NE,4.6,-,N/A,Thunderstorm,Thunderstorm,40,2013-08-03 00:35:00
8:55 PM,75.2,73.4,94,30.05,10.0,Calm,Calm,-,N/A,,Partly Cloudy,0,2013-08-03 00:55:00
9:15 PM,75.2,75.2,100,30.05,9.0,Calm,Calm,-,N/A,,Partly Cloudy,0,2013-08-03 01:15:00
9:35 PM,75.2,75.2,100,30.06,10.0,Calm,Calm,-,N/A,,Partly Cloudy,0,2013-08-03 01:35:00
9:55 PM,75.2,75.2,100,30.06,9.0,Calm,Calm,-,N/A,,Mostly Cloudy,0,2013-08-03 01:55:00
10:15 PM,75.2,75.2,100,30.07,10.0,Calm,Calm,-,N/A,,Mostly Cloudy,0,2013-08-03 02:15:00
10:35 PM,75.2,75.2,100,30.07,9.0,WSW,8.1,-,N/A,,Scattered Clouds,250,2013-08-03 02:35:00
10:55 PM,75.2,75.2,100,30.07,10.0,SW,4.6,-,N/A,,Clear,230,2013-08-03 02:55:00
11:15 PM,75.2,75.2,100,30.06,8.0,WSW,3.5,-,N/A,,Clear,250,2013-08-03 03:15:00
11:35 PM,75.2,75.2,100,30.06,7.0,Calm,Calm,-,N/A,,Clear,0,2013-08-03 03:35:00
11:55 PM,75.2,75.2,100,30.07,8.0,Calm,Calm,-,N/A,,Clear,0,2013-08-03 03:55:00